• In Netherlands
  • List of Countries
  • For 7 days
  • Water Temperature
  • Satellite Maps
  • Weather Map
  • Weather Widgets
  • user-avatar
    Login

    Hourly Weather Jewłach

    Today, 29 March, Wednesday

    Time Temperature Precipitation Wind Pressure Humidity
    00:00 +8°C° 0 mm 3 mps 762 mmHg 53%
    01:00 +6°C° 0 mm 4 mps 762 mmHg 52%
    02:00 +6°C° 0 mm 5 mps 761 mmHg 50%
    03:00 +7°C° 0 mm 6 mps 761 mmHg 48%
    04:00 +5°C° 0 mm 6 mps 761 mmHg 47%
    05:00 +5°C° 0 mm 6 mps 761 mmHg 47%
    06:00 +5°C° 0 mm 6 mps 761 mmHg 47%
    07:00 +8°C° 0 mm 7 mps 761 mmHg 41%
    08:00 +10°C° 0 mm 7 mps 761 mmHg 36%
    09:00 +14°C° 0 mm 7 mps 761 mmHg 31%
    10:00 +15°C° 0 mm 7 mps 761 mmHg 29%
    11:00 +16°C° 0 mm 7 mps 761 mmHg 27%
    12:00 +18°C° 0 mm 7 mps 760 mmHg 25%
    13:00 +18°C° 0 mm 7 mps 760 mmHg 25%
    14:00 +20°C° 0 mm 7 mps 760 mmHg 25%
    15:00 +20°C° 0 mm 7 mps 760 mmHg 24%
    16:00 +17°C° 0 mm 5 mps 761 mmHg 28%
    17:00 +17°C° 0 mm 4 mps 762 mmHg 32%
    18:00 +14°C° 0 mm 3 mps 762 mmHg 36%
    19:00 +14°C° 0 mm 2 mps 763 mmHg 39%
    20:00 +13°C° 0 mm 2 mps 764 mmHg 43%
    21:00 +10°C° 0 mm 2 mps 765 mmHg 46%
    22:00 +9°C° 0 mm 2 mps 766 mmHg 54%
    23:00 +9°C° 0 mm 2 mps 766 mmHg 61%

    Tomorrow, 30 March, Thursday

    Time Temperature Precipitation Wind Pressure Humidity
    00:00 +8°C° 0 mm 3 mps 767 mmHg 68%
    01:00 +7°C° 0 mm 2 mps 767 mmHg 73%
    02:00 +7°C° 0 mm 2 mps 767 mmHg 77%
    03:00 +7°C° 0 mm 1 mps 767 mmHg 81%
    04:00 +7°C° 0 mm 1 mps 767 mmHg 82%
    05:00 +7°C° 0 mm 1 mps 767 mmHg 83%
    06:00 +7°C° 0 mm 1 mps 767 mmHg 84%
    07:00 +9°C° 0 mm 1 mps 767 mmHg 76%
    08:00 +11°C° 0 mm 1 mps 767 mmHg 67%
    09:00 +13°C° 0 mm 2 mps 766 mmHg 58%
    10:00 +14°C° 0 mm 1 mps 765 mmHg 54%
    11:00 +15°C° 0 mm 1 mps 764 mmHg 50%
    12:00 +18°C° 0 mm 1 mps 763 mmHg 45%
    13:00 +18°C° 0 mm 1 mps 762 mmHg 43%
    14:00 +19°C° 0 mm 1 mps 762 mmHg 41%
    15:00 +20°C° 0 mm 1 mps 761 mmHg 39%
    16:00 +18°C° 0 mm 1 mps 761 mmHg 43%
    17:00 +16°C° 0 mm 1 mps 761 mmHg 48%
    18:00 +14°C° 0 mm 1 mps 761 mmHg 52%
    19:00 +14°C° 0 mm 1 mps 761 mmHg 53%
    20:00 +13°C° 0 mm 2 mps 761 mmHg 55%
    21:00 +12°C° 0 mm 2 mps 761 mmHg 56%
    22:00 +12°C° 0 mm 2 mps 761 mmHg 54%
    23:00 +12°C° 0 mm 2 mps 761 mmHg 53%

    Day after tomorrow, 31 March, Friday

    Time Temperature Precipitation Wind Pressure Humidity
    00:00 +11°C° 0 mm 3 mps 761 mmHg 51%
    01:00 +10°C° 0 mm 3 mps 761 mmHg 50%
    02:00 +10°C° 0 mm 3 mps 761 mmHg 48%
    03:00 +10°C° 0 mm 3 mps 761 mmHg 47%
    04:00 +10°C° 0 mm 3 mps 761 mmHg 47%
    05:00 +10°C° 0 mm 3 mps 762 mmHg 48%
    06:00 +9°C° 0 mm 2 mps 762 mmHg 48%
    07:00 +13°C° 0 mm 2 mps 762 mmHg 42%
    08:00 +15°C° 0 mm 2 mps 762 mmHg 37%
    09:00 +18°C° 0 mm 2 mps 762 mmHg 31%
    10:00 +19°C° 0 mm 2 mps 762 mmHg 29%
    11:00 +20°C° 0 mm 2 mps 762 mmHg 27%
    12:00 +21°C° 0 mm 2 mps 762 mmHg 24%
    13:00 +21°C° 0 mm 2 mps 762 mmHg 25%
    14:00 +21°C° 0 mm 3 mps 762 mmHg 25%
    15:00 +22°C° 0 mm 4 mps 762 mmHg 26%
    16:00 +20°C° 0 mm 4 mps 762 mmHg 34%
    17:00 +17°C° 0 mm 5 mps 763 mmHg 41%
    18:00 +15°C° 0 mm 5 mps 764 mmHg 49%
    19:00 +14°C° 0.3 mm 6 mps 765 mmHg 57%
    20:00 +11°C° 0.3 mm 6 mps 765 mmHg 65%
    21:00 +10°C° 0.3 mm 7 mps 766 mmHg 73%
    22:00 +9°C° 0.6 mm 7 mps 767 mmHg 76%
    23:00 +8°C° 0.6 mm 6 mps 767 mmHg 78%

    1 April, Saturday

    Time Temperature Precipitation Wind Pressure Humidity
    00:00 +7°C° 0.6 mm 6 mps 767 mmHg 81%
    01:00 +7°C° 0.4 mm 6 mps 767 mmHg 82%
    02:00 +6°C° 0.4 mm 5 mps 767 mmHg 83%
    03:00 +6°C° 0.4 mm 5 mps 767 mmHg 83%
    04:00 +6°C° 0.3 mm 5 mps 767 mmHg 84%
    05:00 +5°C° 0.3 mm 5 mps 767 mmHg 84%
    06:00 +5°C° 0.3 mm 4 mps 768 mmHg 85%
    07:00 +5°C° 0.2 mm 4 mps 768 mmHg 83%
    08:00 +6°C° 0.2 mm 5 mps 768 mmHg 80%
    09:00 +6°C° 0.2 mm 5 mps 768 mmHg 78%
    10:00 +7°C° 0.1 mm 5 mps 767 mmHg 75%
    11:00 +8°C° 0.1 mm 4 mps 767 mmHg 71%
    12:00 +10°C° 0.1 mm 4 mps 766 mmHg 68%
    13:00 +10°C° 0 mm 4 mps 766 mmHg 67%
    14:00 +10°C° 0 mm 3 mps 765 mmHg 67%
    15:00 +10°C° 0 mm 3 mps 764 mmHg 66%
    16:00 +9°C° 0 mm 3 mps 765 mmHg 70%
    17:00 +9°C° 0 mm 2 mps 765 mmHg 74%
    18:00 +8°C° 0 mm 2 mps 765 mmHg 78%
    19:00 +8°C° 0 mm 2 mps 765 mmHg 82%
    20:00 +7°C° 0 mm 2 mps 765 mmHg 86%
    21:00 +6°C° 0 mm 2 mps 766 mmHg 89%
    22:00 +6°C° 0 mm 2 mps 765 mmHg 91%
    23:00 +6°C° 0 mm 1 mps 765 mmHg 93%

    2 April, Sunday

    Time Temperature Precipitation Wind Pressure Humidity
    00:00 +6°C° 0 mm 1 mps 765 mmHg 95%
    01:00 +6°C° 0 mm 1 mps 765 mmHg 95%
    02:00 +6°C° 0 mm 1 mps 765 mmHg 95%
    03:00 +6°C° 0 mm 1 mps 765 mmHg 95%
    04:00 +6°C° 0 mm 1 mps 765 mmHg 94%
    05:00 +6°C° 0 mm 1 mps 765 mmHg 94%
    06:00 +5°C° 0 mm 0 mps 765 mmHg 93%
    07:00 +6°C° 0 mm 0 mps 765 mmHg 86%
    08:00 +9°C° 0 mm 1 mps 765 mmHg 79%
    09:00 +10°C° 0 mm 1 mps 765 mmHg 73%
    10:00 +12°C° 0 mm 2 mps 765 mmHg 67%
    11:00 +13°C° 0 mm 2 mps 765 mmHg 61%
    12:00 +14°C° 0 mm 3 mps 765 mmHg 56%
    13:00 +16°C° 0 mm 3 mps 764 mmHg 53%
    14:00 +16°C° 0 mm 3 mps 764 mmHg 51%
    15:00 +17°C° 0 mm 4 mps 764 mmHg 49%
    16:00 +15°C° 0 mm 4 mps 764 mmHg 54%
    17:00 +14°C° 0 mm 4 mps 765 mmHg 59%
    18:00 +12°C° 0 mm 4 mps 765 mmHg 64%
    19:00 +11°C° 0 mm 4 mps 766 mmHg 68%
    20:00 +10°C° 0 mm 4 mps 767 mmHg 72%
    21:00 +8°C° 0 mm 5 mps 767 mmHg 76%
    22:00 +7°C° 0 mm 4 mps 768 mmHg 77%
    23:00 +6°C° 0 mm 4 mps 768 mmHg 79%

    3 April, Monday

    Time Temperature Precipitation Wind Pressure Humidity
    00:00 +7°C° 0 mm 3 mps 768 mmHg 80%
    01:00 +7°C° 0 mm 3 mps 768 mmHg 79%
    02:00 +5°C° 0 mm 3 mps 768 mmHg 78%
    03:00 +6°C° 0 mm 2 mps 769 mmHg 78%
    04:00 +6°C° 0 mm 2 mps 769 mmHg 76%
    05:00 +6°C° 0 mm 2 mps 769 mmHg 75%
    06:00 +6°C° 0 mm 2 mps 770 mmHg 74%
    07:00 +8°C° 0 mm 3 mps 769 mmHg 67%
    08:00 +9°C° 0 mm 3 mps 769 mmHg 61%
    09:00 +10°C° 0 mm 4 mps 769 mmHg 55%
    10:00 +12°C° 0 mm 3 mps 769 mmHg 51%
    11:00 +13°C° 0 mm 3 mps 768 mmHg 48%
    12:00 +14°C° 0 mm 3 mps 768 mmHg 45%
    13:00 +16°C° 0 mm 3 mps 767 mmHg 44%
    14:00 +16°C° 0 mm 3 mps 767 mmHg 43%
    15:00 +17°C° 0 mm 3 mps 766 mmHg 42%
    16:00 +14°C° 0 mm 3 mps 766 mmHg 47%
    17:00 +14°C° 0 mm 2 mps 766 mmHg 52%
    18:00 +13°C° 0 mm 2 mps 767 mmHg 57%
    19:00 +12°C° 0 mm 2 mps 767 mmHg 61%
    20:00 +10°C° 0 mm 2 mps 767 mmHg 65%
    21:00 +9°C° 0 mm 2 mps 768 mmHg 69%
    22:00 +8°C° 0 mm 2 mps 767 mmHg 72%
    23:00 +8°C° 0 mm 1 mps 767 mmHg 75%
    Show more